Weather History for KMZZ - July, 2013

Change the Weather History Date:

Friday, July 26, 2013

  Actual Average (KMIE) Record (KMIE)
Temperature  
Mean Temperature 64 °F 74 °F  
Max Temperature 77 °F 84 °F 96 °F (1997)
Min Temperature 52 °F 64 °F 35 °F (1996)
Degree Days  
Heating Degree Days 0 0  
Month to date heating degree days 0  
Since 1 June heating degree days 24  
Since 1 July heating degree days 0  
Cooling Degree Days 0 9  
Month to date cooling degree days 252  
Year to date cooling degree days 551  
Since 1 June cooling degree days 468  
Growing Degree Days 14 (Base 50)    
Moisture  
Dew Point 56 °F    
Average Humidity 73    
Maximum Humidity 94    
Minimum Humidity 48    
Precipitation  
Precipitation 0.00 in 0.12 in 1.65 in (1986)
Month to date precipitation 3.76  
Year to date precipitation 23.99  
Sea Level Pressure  
Sea Level Pressure 30.05 in    
Wind  
Wind Speed 3 mph (SW)    
Max Wind Speed 13 mph    
Max Gust Speed -    
Visibility 9 miles    
Events      
T = Trace of Precipitation, MM = Missing Value Source: NWS Daily Summary

Daily Weather History Graph

Daily Weather History Graph

Search for Another Location

Airport or City:

Trip Planner

Search our weather history database for the weather conditions in past years. The results will help you decide how hot, cold, wet, or windy it might be!

Date:

Astronomy

Jul. 26, 2013 Rise Set
Actual Time 6:34 AM EDT 9:03 PM EDT
Civil Twilight 6:03 AM EDT 9:34 PM EDT
Nautical Twilight 5:24 AM EDT 10:12 PM EDT
Astronomical Twilight 4:41 AM EDT 10:55 PM EDT
Moon 11:15 PM EDT (7/26) 11:11 AM EDT (7/26)
Length of Visible Light 15h 30m
Length of Day
14h 28m
Waning Gibbous, 80% of the Moon is Illuminated
Jul 26
Waning Gibbous
Jul 29
Last Quarter
Aug 6
New
Aug 14
First Quarter
Aug 20
Full

Hourly Weather History & Observations

Time (EDT) Temp. Dew Point Humidity Pressure Visibility Wind Dir Wind Speed Gust Speed Precip Events Conditions
12:15 AM 57.6 °F 55.2 °F 92% 30.12 in 10.0 mi Calm Calm - N/A   Clear
12:35 AM 56.8 °F 54.3 °F 91% 30.12 in 10.0 mi Calm Calm - N/A   Clear
12:55 AM 56.1 °F 53.8 °F 92% 30.12 in 10.0 mi Calm Calm - N/A   Clear
1:15 AM 55.8 °F 54.0 °F 94% 30.11 in 10.0 mi Calm Calm - N/A   Clear
1:35 AM 55.8 °F 53.8 °F 93% 30.11 in 10.0 mi Calm Calm - N/A   Clear
1:55 AM 55.6 °F 53.6 °F 93% 30.11 in 10.0 mi Calm Calm - N/A   Clear
2:15 AM 55.9 °F 54.0 °F 93% 30.10 in 10.0 mi Calm Calm - N/A   Clear
2:35 AM 55.8 °F 53.8 °F 93% 30.10 in 10.0 mi Calm Calm - N/A   Clear
2:55 AM 55.8 °F 53.8 °F 93% 30.09 in 10.0 mi SE 3.5 mph - N/A   Clear
3:15 AM 55.4 °F 53.1 °F 92% 30.09 in 7.0 mi Calm Calm - N/A   Clear
3:35 AM 55.0 °F 53.1 °F 93% 30.08 in 7.0 mi Calm Calm - N/A   Clear
3:55 AM 54.1 °F 52.2 °F 93% 30.09 in 10.0 mi Calm Calm - N/A   Clear
4:15 AM 53.4 °F 51.6 °F 94% 30.10 in 10.0 mi Calm Calm - N/A   Clear
4:35 AM 53.6 °F 51.8 °F 94% 30.09 in 10.0 mi Calm Calm - N/A   Clear
4:55 AM 53.6 °F 51.8 °F 94% 30.08 in 10.0 mi Calm Calm - N/A   Clear
5:15 AM 53.8 °F 52.0 °F 94% 30.08 in 10.0 mi Calm Calm - N/A   Clear
5:35 AM 53.8 °F 52.0 °F 94% 30.08 in 10.0 mi SE 3.5 mph - N/A   Clear
5:55 AM 53.6 °F 51.6 °F 93% 30.08 in 7.0 mi Calm Calm - N/A   Clear
6:15 AM 52.5 °F 50.5 °F 93% 30.08 in 10.0 mi Calm Calm - N/A   Clear
6:35 AM 52.7 °F 51.1 °F 94% 30.08 in 7.0 mi Calm Calm - N/A   Clear
6:55 AM 53.2 °F 51.6 °F 94% 30.09 in 7.0 mi Calm Calm - N/A   Clear
7:15 AM 53.6 °F 52.0 °F 94% 30.10 in 7.0 mi Calm Calm - N/A   Clear
7:35 AM 54.9 °F 53.2 °F 94% 30.10 in 7.0 mi Calm Calm - N/A   Clear
7:55 AM 57.0 °F 54.9 °F 92% 30.09 in 7.0 mi Calm Calm - N/A   Clear
8:15 AM 59.2 °F 55.8 °F 88% 30.09 in 7.0 mi SSE 3.5 mph - N/A   Clear
8:35 AM 60.8 °F 55.4 °F 82% 30.10 in 10.0 mi Calm Calm - N/A   Clear
8:55 AM 61.0 °F 55.4 °F 82% 30.10 in 10.0 mi Calm Calm - N/A   Clear
9:15 AM 63.1 °F 56.5 °F 79% 30.10 in 10.0 mi SSE 3.5 mph - N/A   Clear
9:35 AM 65.1 °F 57.4 °F 76% 30.10 in 7.0 mi South 3.5 mph - N/A   Clear
9:55 AM 67.1 °F 58.3 °F 73% 30.10 in 7.0 mi South 8.1 mph - N/A   Clear
10:15 AM 68.2 °F 58.1 °F 70% 30.10 in 10.0 mi South 6.9 mph - N/A   Clear
10:35 AM 68.9 °F 58.1 °F 68% 30.10 in 10.0 mi South 5.8 mph - N/A   Clear
10:55 AM 70.0 °F 57.9 °F 65% 30.09 in 10.0 mi SSW 4.6 mph - N/A   Clear
11:15 AM 71.1 °F 58.5 °F 64% 30.09 in 10.0 mi SSW 5.8 mph - N/A   Clear
11:35 AM 71.6 °F 57.6 °F 61% 30.09 in 10.0 mi SW 6.9 mph - N/A   Clear
11:55 AM 72.3 °F 57.2 °F 59% 30.08 in 10.0 mi SSW 5.8 mph - N/A   Clear
12:15 PM 73.6 °F 57.2 °F 56% 30.08 in 10.0 mi SSW 5.8 mph - N/A   Clear
12:35 PM 74.1 °F 56.3 °F 54% 30.08 in 10.0 mi SW 4.6 mph - N/A   Clear
12:55 PM 74.5 °F 56.3 °F 53% 30.07 in 10.0 mi SW 4.6 mph - N/A   Clear
1:15 PM 74.8 °F 56.3 °F 52% 30.06 in 10.0 mi South 5.8 mph - N/A   Clear
1:35 PM 75.2 °F 57.2 °F 53% 30.06 in 10.0 mi South 8.1 mph - N/A   Scattered Clouds
1:55 PM 76.1 °F 56.3 °F 50% 30.05 in 10.0 mi SSW 8.1 mph - N/A   Scattered Clouds
2:15 PM 75.9 °F 55.6 °F 49% 30.04 in 7.0 mi SW 9.2 mph - N/A   Scattered Clouds
2:35 PM 75.9 °F 56.1 °F 50% 30.04 in 10.0 mi SW 10.4 mph - N/A   Scattered Clouds
2:55 PM 76.8 °F 57.0 °F 50% 30.04 in 10.0 mi South 11.5 mph - N/A   Scattered Clouds
3:15 PM 77.0 °F 55.8 °F 48% 30.02 in 10.0 mi SSW 4.6 mph - N/A   Scattered Clouds
3:35 PM 76.5 °F 57.0 °F 51% 30.01 in 10.0 mi SSW 11.5 mph - N/A   Scattered Clouds
3:55 PM 77.0 °F 58.5 °F 53% 30.01 in 10.0 mi South 9.2 mph - N/A   Scattered Clouds
4:15 PM 76.8 °F 57.7 °F 52% 30.01 in 7.0 mi SSW 12.7 mph - N/A   Mostly Cloudy
4:35 PM 76.3 °F 57.6 °F 52% 30.01 in 7.0 mi SW 6.9 mph - N/A   Mostly Cloudy
4:55 PM 76.8 °F 57.9 °F 52% 30.00 in 7.0 mi WSW 8.1 mph - N/A   Mostly Cloudy
5:15 PM 76.8 °F 57.7 °F 52% 30.00 in 10.0 mi WSW 8.1 mph - N/A   Mostly Cloudy
5:35 PM 76.8 °F 57.7 °F 52% 30.00 in 10.0 mi WSW 9.2 mph - N/A   Scattered Clouds
5:55 PM 75.6 °F 57.9 °F 54% 29.99 in 10.0 mi WSW 10.4 mph - N/A   Scattered Clouds
6:15 PM 74.7 °F 57.4 °F 55% 30.00 in 7.0 mi West 10.4 mph - N/A   Clear
6:35 PM 74.1 °F 57.4 °F 56% 29.99 in 10.0 mi WSW 8.1 mph - N/A   Clear
6:55 PM 73.4 °F 57.7 °F 58% 29.99 in 7.0 mi WSW 8.1 mph - N/A   Clear
7:15 PM 73.0 °F 57.7 °F 59% 29.99 in 10.0 mi WSW 8.1 mph - N/A   Scattered Clouds
7:35 PM 72.5 °F 57.4 °F 59% 29.99 in 10.0 mi WSW 8.1 mph - N/A   Scattered Clouds
7:55 PM 71.6 °F 57.4 °F 61% 29.99 in 10.0 mi WSW 6.9 mph - N/A   Mostly Cloudy
8:15 PM 70.9 °F 57.9 °F 63% 29.99 in 7.0 mi WSW 5.8 mph - N/A   Overcast
8:35 PM 70.2 °F 58.6 °F 67% 29.99 in 10.0 mi West 4.6 mph - N/A   Overcast
8:55 PM 69.3 °F 59.7 °F 72% 29.98 in 10.0 mi West 4.6 mph - N/A   Overcast
9:15 PM 68.2 °F 60.6 °F 77% 29.98 in 10.0 mi SW 3.5 mph - N/A   Overcast
9:35 PM 68.0 °F 61.0 °F 78% 29.97 in 10.0 mi SW 3.5 mph - N/A   Overcast
9:55 PM 68.0 °F 61.0 °F 78% 29.97 in 10.0 mi SW 4.6 mph - N/A   Overcast
10:15 PM 68.2 °F 60.1 °F 75% 29.97 in 10.0 mi WSW 5.8 mph - N/A   Overcast
10:35 PM 68.0 °F 59.7 °F 75% 29.97 in 10.0 mi SW 6.9 mph - N/A   Overcast
10:55 PM 68.0 °F 59.4 °F 74% 29.97 in 10.0 mi WSW 5.8 mph - N/A   Overcast
11:15 PM 68.0 °F 59.0 °F 73% 29.96 in 10.0 mi SW 5.8 mph - N/A   Overcast
11:35 PM 67.8 °F 59.0 °F 73% 29.96 in 10.0 mi SW 3.5 mph - N/A   Overcast
11:55 PM 66.9 °F 59.7 °F 78% 29.96 in 10.0 mi WSW 3.5 mph - N/A   Overcast